Regional Weather Roundup
Issued by NWS Cleveland, OH

Home | Current Version | Previous Version | Text Only | Print | Product List | Glossary Off
Versions: 1 2 3 4 5 6 7 8 9 10 11 12 13 14 15 16 17 18 19 20 21 22 23 24 25 26 27 28 29 30 31 32 33 34 35 36 37 38 39 40 41 42 43 44 45 46 47 48 49 50

000
ASUS41 KCLE 232100
RWRCLE
OHIO REGIONAL WEATHER ROUNDUP
NATIONAL WEATHER SERVICE WILMINGTON, OH
500 PM EDT WED APR 23 2014

NOTE: "FAIR" INDICATES FEW OR NO CLOUDS BELOW 12,000 FEET WITH NO
SIGNIFICANT WEATHER AND/OR OBSTRUCTIONS TO VISIBILITY.

OHZ001>008-015>018-024>027-034-035-043-044-232200-
   NORTHWEST OHIO

CITY           SKY/WX    TMP DP  RH WIND       PRES   REMARKS
DEFIANCE       SUNNY     59  26  28 NE10      30.08F
FINDLAY        SUNNY     56  29  35 N6        30.07F
TOLEDO EXPRESS SUNNY     56  24  29 N9        30.07F
TOLEDO METCALF SUNNY     55  29  36 MISG      30.09F
LIMA           SUNNY     55  31  39 NW9       30.07F
$$

OHZ009>014-019>023-028>033-038-089-232200-
   NORTHEAST OHIO

CITY           SKY/WX    TMP DP  RH WIND       PRES   REMARKS
CLE-HOPKINS    MOSUNNY   50  29  44 NW15      30.11S
CLE-LAKEFRONT  SUNNY     45  35  68 W13       30.08S
CUY CO. ARPT   MOSUNNY   46  32  57 NW16G23   30.08S
LORAIN-ELYRIA  SUNNY     51  30  44 N7        30.09F
ASHTABULA      SUNNY     46  23  40 NW15G24   30.06R
AKRON-CANTON   MOSUNNY   47  30  51 NW12      30.06R
WOOSTER        NOT AVBL
MANSFIELD      MOSUNNY   50  32  50 NW9       30.07F
YOUNGSTOWN     MOSUNNY   49  27  42 NW20      30.03S
$$

OHZ042-051>053-060>062-070>072-077>081-232200-
  SOUTHWEST OHIO

CITY           SKY/WX    TMP DP  RH WIND       PRES   REMARKS
CINC-COVINGTON NOT AVBL
CINC-LUNKEN    SUNNY     59  34  39 VRB3      30.06F
HAMILTON       SUNNY     62  35  36 N9        30.07F
DAYTON         NOT AVBL
WRIGHT-PAT AFB NOT AVBL
DAYTON GENERAL SUNNY     58  32  37 VRB7      30.05F
WILMINGTON     SUNNY     58  31  35 N9        30.05F
$$

OHZ036-037-039>041-045>050-054>059-063>069-073>076-082>088-232200-
  CENTRAL AND SOUTHEAST OHIO

CITY           SKY/WX    TMP DP  RH WIND       PRES   REMARKS
COLUMBUS       MOSUNNY   57  32  38 N10G18    30.06F
OSU AIRPORT    MOSUNNY   56  33  42 N12       30.06F
BOLTON FIELD   MOSUNNY   55  36  47 NW9       30.06F
RICKENBACK AFB NOT AVBL
NEWARK         MOSUNNY   54  33  45 NW10      30.05F
MARION         PTSUNNY   53  32  44 N8        30.08F
LANCASTER      MOSUNNY   57  33  40 MISG      30.06S
ZANESVILLE     MOSUNNY   53  32  44 NW5       30.04F
NEW PHILLY     PTSUNNY   48  32  53 NW12      30.08R
$$



USA.gov is the U.S. government's official web portal to all federal, state and local government web resources and services.